SANTA FE DAM RAWS NEAR IRWINDALE 1NW ( HADS current weather conditions

sailwx.info

Wind from 053 at 6 knots gusting 15

Air temperature 21.7° C
Dewpoint -12.6° C

Last reported at 2017-Apr-29 08:57 UTC.
Time now 2017-Apr-29 09:19 UTC

Location: N 34°08' W 117°57'.
View on Google Maps.

See reports from other nearby stations

  
Tides and Currents Weather Stations Pressure Air Temp Water Temp Dewpoint Dewpoint Depression Visibility Wind Speed Wind Dir Waves Ship Positions
date/time (UTC)wind fromknots sea level pressurealtimeterstation pressurevisibilityair tempwater tempwave heightnotes
2017-Apr-29 08:57 053 6 gusting 15 21.7
2017-Apr-29 07:57 045 5 gusting 14 22.2
2017-Apr-29 06:57 062 3 gusting 19 22.2
2017-Apr-29 05:57 035 9 gusting 22 23.3
2017-Apr-29 04:57 012 11 gusting 22 23.3
2017-Apr-29 03:57 032 9 gusting 19 23.9
2017-Apr-29 02:57 025 10 gusting 19 23.9
2017-Apr-29 01:57 356 9 gusting 21 25.6
2017-Apr-29 00:57 332 11 gusting 19 27.2
2017-Apr-28 23:57 301 11 gusting 18 28.9
2017-Apr-28 22:57 313 7 gusting 20 30.6
2017-Apr-28 21:57 300 12 gusting 21 30.6
2017-Apr-28 20:57 326 6 gusting 22 30.6
2017-Apr-28 19:57 101 2 gusting 14 30.0
2017-Apr-28 18:57 181 3 gusting 9 26.7
2017-Apr-28 17:57 189 3 gusting 6 23.9
2017-Apr-28 16:57 162 3 gusting 7 21.7
2017-Apr-28 15:57 049 2 gusting 6 20.6
2017-Apr-28 14:57 151 2 gusting 4 17.2
2017-Apr-28 13:57 066 0 gusting 3 14.4
2017-Apr-28 12:57 036 15.0
2017-Apr-28 11:57 084 2 gusting 7 15.6
2017-Apr-28 10:57 070 2 gusting 6 17.2
2017-Apr-28 09:57 059 1 gusting 10 17.8
2017-Apr-28 08:57 069 3 gusting 6 18.9
2017-Apr-28 07:57 053 3 gusting 6 19.4
2017-Apr-28 06:57 105 1 gusting 8 20.0
2017-Apr-28 05:57 046 1 gusting 8 21.1
2017-Apr-28 04:57 086 1 gusting 10 22.8
2017-Apr-28 03:57 088 3 gusting 16 22.8
2017-Apr-28 02:57 315 4 gusting 6 23.3
2017-Apr-28 01:57 244 0 gusting 6 26.1
2017-Apr-28 00:57 115 2 gusting 8 26.7
2017-Apr-27 23:57 106 3 gusting 9 26.7
2017-Apr-27 22:57 134 3 gusting 10 26.7
2017-Apr-27 21:57 166 6 gusting 13 25.6
2017-Apr-27 20:57 237 6 gusting 12 26.7
2017-Apr-27 19:57 230 6 gusting 11 25.6
2017-Apr-27 18:57 242 5 gusting 8 23.9
2017-Apr-27 17:57 247 2 gusting 7 22.2
2017-Apr-27 16:57 091 3 gusting 6 20.6
2017-Apr-27 15:57 163 2 gusting 6 18.9
2017-Apr-27 14:57 127 2 gusting 6 16.1
2017-Apr-27 13:57 098 1 gusting 4 15.0
2017-Apr-27 12:57 093 0 gusting 6 14.4
2017-Apr-27 11:57 109 4 gusting 7 15.6
2017-Apr-27 10:57 127 0 gusting 3 15.6
2017-Apr-27 09:57 234 15.6